Powrót do katalogu

FENGYUN 1C DEB

AktywnyPO
NORAD 33647·DEBRIS·🇨🇳 China

Wystrzelony May 10, 1999 z Taiyuan Satellite Launch Center

Loading…

Następne Przeloty (najbliższe 24 godziny)

TLE

NieaktualneSource: Space-Track

Epoka: Aug 19, 2026, 07:56 UTC

1 33647U 99025DEG 26231.33094191  .00001956  00000-0  12695-2 0  9998
2 33647  98.1933  62.5186 0244141 120.3276 242.2277 13.89993552663110

Śledź FENGYUN 1C DEB w czasie rzeczywistym z AllMySat

Download on the App Store